Lid_Strength_Index
16 16 15 16 16 16 17 16 16 15 16 16 15 16 16 16 16 15 15 14 14 13
15 15 16 16 15 16 15 14 15 16 15 15 15 15 15 16 16 16 15 15 15 15
14 14 15 15 15 15 15 16 16 16 16 16 16 15 15 15 15 15 16 15 15 15
14 14 14 14 14 14 14 15 15 16 16 16 16 17 17 16 16 16 16 15 15 15
14 14 14 14 14 14 14 14 14 15 15 15 15 16 17 16 16 16 16 16 16 16
14 14 14 14 14 14 14 14 14 14 15 15 15 15 16 16 15 16 16 15 15 15
14 14 14 14 14 14 14 14 14 14 14 14 15 15 15 15 15 15 15 14 14 15
13 13 14 14 14 14 14 14 14 14 15 14 14 14 14 14 14 15 15 15 14 14
14 14 14 14 14 14 14 14 14 14 15 15 14 12 11 12 13 14 14 14 14 14
14 14 14 15 15 15 16 15 16 16 16 16 16 13 12 12 14 15 15 15 15 14
15 16 16 16 17 17 17 17 17 17 17 17 17 14 14 14 15 16 16 16 16 16
16 18 18 20 19 18 18 19 19 18 19 20 19 16 15 15 17 17 17 16 16 16
17 21 21 19 20 19 20 19 19 19 20 20 21 17 16 15 17 18 17 16 16 14
18 21 21 21 20 21 21 20 22 21 21 21 19 19 16 14 16 17 17 17 16 15